KB7KFC-3 Weather Reports


time (UTC)temp
F
wind
direction
speed
knots
gust
knots
rain 1hr
in
rain 24hr
in
rain mn
in
humidity
%
barometer
mb
20260507142805 67 343 0.0 0.0 0.00 0.00 0.00 40 1014.9
20260507142505 67 343 0.0 0.9 0.00 0.00 0.00 42 1014.9
20260507142204 67 343 0.0 0.0 0.00 0.00 0.00 41 1014.9
20260507141904 66 238 0.0 0.9 0.00 0.00 0.00 42 1014.8
20260507141603 66 228 0.0 1.7 0.00 0.00 0.00 44 1014.8
20260507141306 65 161 0.0 0.0 0.00 0.00 0.00 49 1014.7
20260507141006 65 161 0.0 0.0 0.00 0.00 0.00 49 1014.8
20260507140704 64 142 0.0 0.0 0.00 0.00 0.00 55 1014.8
20260507140404 64 142 0.0 0.0 0.00 0.00 0.00 54 1014.8
20260507140104 63 142 0.0 0.0 0.00 0.00 0.00 52 1014.8
20260507135804 63 142 0.0 0.0 0.00 0.00 0.00 52 1014.8
20260507135505 63 142 0.0 0.0 0.00 0.00 0.00 49 1014.8
20260507135204 63 142 0.0 0.0 0.00 0.00 0.00 46 1014.8
20260507134904 62 142 0.0 0.0 0.00 0.00 0.00 45 1014.8
20260507134605 62 142 0.0 0.0 0.00 0.00 0.00 44 1014.7
20260507134304 62 142 0.0 0.0 0.00 0.00 0.00 44 1014.7
20260507134003 61 142 0.0 0.0 0.00 0.00 0.00 43 1014.7
20260507133704 61 142 0.0 0.0 0.00 0.00 0.00 47 1014.7
20260507133403 61 142 0.0 0.0 0.00 0.00 0.00 46 1014.6
20260507133104 61 142 0.0 0.9 0.00 0.00 0.00 48 1014.6
20260507132805 61 142 0.0 0.0 0.00 0.00 0.00 43 1014.5
20260507132504 61 142 0.0 0.0 0.00 0.00 0.00 43 1014.6
20260507132203 61 142 0.0 0.9 0.00 0.00 0.00 44 1014.5
20260507131906 61 142 0.0 0.9 0.00 0.00 0.00 43 1014.6
20260507131603 60 142 0.0 0.0 0.00 0.00 0.00 43 1014.4
20260507131305 60 142 0.0 0.0 0.00 0.00 0.00 43 1014.5
20260507131005 60 142 0.0 0.0 0.00 0.00 0.00 43 1014.5
20260507130705 60 142 0.0 0.0 0.00 0.00 0.00 44 1014.4
20260507130404 60 142 0.0 0.0 0.00 0.00 0.00 45 1014.4
20260507130104 60 142 0.0 0.0 0.00 0.00 0.00 43 1014.4
20260507125805 60 142 0.0 0.0 0.00 0.00 0.00 43 1014.4
20260507125505 61 142 0.0 0.0 0.00 0.00 0.00 43 1014.4
20260507125204 61 142 0.0 0.0 0.00 0.00 0.00 42 1014.4
20260507124904 61 144 0.0 0.9 0.00 0.00 0.00 41 1014.4
20260507124605 61 205 0.0 1.7 0.00 0.00 0.00 40 1014.3
20260507124303 61 248 0.0 0.9 0.00 0.00 0.00 40 1014.3
20260507124004 61 250 0.0 0.0 0.00 0.00 0.00 43 1014.3
20260507123703 61 250 0.0 0.9 0.00 0.00 0.00 41 1014.4
20260507123404 61 250 0.0 0.0 0.00 0.00 0.00 40 1014.4
20260507123104 61 250 0.0 0.9 0.00 0.00 0.00 40 1014.3
20260507122805 61 248 0.9 0.9 0.00 0.00 0.00 40 1014.3
20260507122504 61 248 0.0 0.9 0.00 0.00 0.00 42 1014.3
20260507122205 62 242 0.0 0.0 0.00 0.00 0.00 41 1014.3
20260507121904 62 242 0.0 0.9 0.00 0.00 0.00 40 1014.3
20260507121603 62 233 0.9 1.7 0.00 0.00 0.00 41 1014.3
20260507121305 62 240 0.9 0.9 0.00 0.00 0.00 43 1014.4
20260507121006 62 252 0.9 2.6 0.00 0.00 0.00 45 1014.4
20260507120704 62 248 0.9 1.7 0.00 0.00 0.00 47 1014.4
20260507120403 62 336 0.0 0.9 0.00 0.00 0.00 47 1014.3
20260507120104 62 9 0.0 0.0 0.00 0.00 0.00 49 1014.4
20260507115805 62 9 0.0 0.0 0.00 0.00 0.00 48 1014.4
20260507115504 62 9 0.0 0.0 0.00 0.00 0.00 47 1014.4
20260507115204 62 9 0.0 0.0 0.00 0.00 0.00 44 1014.4
20260507114903 62 9 0.0 0.0 0.00 0.00 0.00 44 1014.4
20260507114603 62 9 0.0 0.0 0.00 0.00 0.00 45 1014.4
20260507114305 62 9 0.0 0.0 0.00 0.00 0.00 47 1014.4
20260507114005 62 9 0.0 0.0 0.00 0.00 0.00 46 1014.3
20260507113704 62 9 0.0 0.0 0.00 0.00 0.00 45 1014.4
20260507113405 63 9 0.0 0.0 0.00 0.00 0.00 45 1014.4
20260507113104 63 9 0.0 0.0 0.00 0.00 0.00 45 1014.4
20260507112804 63 9 0.0 0.0 0.00 0.00 0.00 46 1014.5
20260507112504 63 9 0.0 0.0 0.00 0.00 0.00 42 1014.5
20260507112205 63 9 0.0 0.0 0.00 0.00 0.00 42 1014.5
20260507111906 63 9 0.0 0.0 0.00 0.00 0.00 43 1014.6
20260507111603 64 9 0.0 0.0 0.00 0.00 0.00 43 1014.5
20260507111304 64 9 0.0 0.0 0.00 0.00 0.00 44 1014.4
20260507111003 64 9 0.0 0.0 0.00 0.00 0.00 42 1014.4
20260507110703 64 9 0.0 0.0 0.00 0.00 0.00 46 1014.4
20260507110404 64 9 0.0 0.0 0.00 0.00 0.00 42 1014.4
20260507110104 64 9 0.0 0.0 0.00 0.00 0.00 41 1014.4
20260507105804 64 9 0.0 0.0 0.00 0.00 0.00 41 1014.4
20260507105504 64 9 0.0 0.0 0.00 0.00 0.00 41 1014.4
20260507105204 65 9 0.0 0.0 0.00 0.00 0.00 40 1014.4
20260507104904 65 9 0.0 0.0 0.00 0.00 0.00 39 1014.4
20260507104603 65 9 0.0 0.0 0.00 0.00 0.00 40 1014.5
20260507104304 65 9 0.0 0.0 0.00 0.00 0.00 39 1014.5
20260507104004 65 9 0.0 0.0 0.00 0.00 0.00 40 1014.5
20260507103704 65 9 0.0 0.0 0.00 0.00 0.00 40 1014.4
20260507103404 65 9 0.0 0.9 0.00 0.00 0.00 40 1014.4
20260507103104 65 9 0.0 0.0 0.00 0.00 0.00 40 1014.4
20260507102805 65 9 0.0 0.0 0.00 0.00 0.00 39 1014.5
20260507102504 65 9 0.0 0.0 0.00 0.00 0.00 39 1014.4
20260507102205 65 9 0.0 0.0 0.00 0.00 0.00 40 1014.4
20260507101905 65 9 0.0 0.0 0.00 0.00 0.00 39 1014.4
20260507101604 65 9 0.0 0.0 0.00 0.00 0.00 40 1014.4
20260507101304 65 9 0.0 0.0 0.00 0.00 0.00 41 1014.5
20260507101003 66 9 0.0 1.7 0.00 0.00 0.00 40 1014.6
20260507100703 65 9 0.0 0.9 0.00 0.00 0.00 38 1014.6
20260507100404 65 9 0.0 0.0 0.00 0.00 0.00 39 1014.7
20260507100105 66 9 0.0 0.0 0.00 0.00 0.00 38 1014.7
20260507095804 66 9 0.9 0.9 0.00 0.00 0.00 37 1014.8
20260507095503 65 348 0.9 1.7 0.00 0.00 0.00 38 1014.8
20260507095204 65 346 0.0 0.9 0.00 0.00 0.00 39 1014.8
20260507094905 65 346 0.0 0.9 0.00 0.00 0.00 41 1014.8
20260507094606 64 239 0.0 0.0 0.00 0.00 0.00 43 1014.8
20260507094304 64 240 0.0 0.0 0.00 0.00 0.00 44 1014.8
20260507094003 64 240 0.0 0.0 0.00 0.00 0.00 43 1014.8
20260507093703 64 237 0.0 0.0 0.00 0.00 0.00 45 1014.8
20260507093404 64 236 0.0 0.0 0.00 0.00 0.00 49 1014.8
20260507093104 64 236 0.0 0.0 0.00 0.00 0.00 49 1014.8
20260507092804 64 236 0.0 0.0 0.00 0.00 0.00 48 1014.8
20260507092503 64 236 0.0 0.0 0.00 0.00 0.00 47 1014.8
20260507092204 64 236 0.0 0.0 0.00 0.00 0.00 45 1014.8
20260507091904 64 236 0.0 0.0 0.00 0.00 0.00 44 1014.8
20260507091604 64 236 0.0 0.0 0.00 0.00 0.00 44 1014.9
20260507091304 64 236 0.0 0.0 0.00 0.00 0.00 45 1014.9
20260507091004 64 236 0.0 0.0 0.00 0.00 0.00 44 1014.9
20260507090704 64 236 0.0 0.0 0.00 0.00 0.00 43 1015.0
20260507090404 64 236 0.0 0.0 0.00 0.00 0.00 42 1015.0
20260507090105 64 236 0.0 0.0 0.00 0.00 0.00 43 1014.9
20260507085804 64 236 0.0 0.0 0.00 0.00 0.00 43 1015.0
20260507085505 65 236 0.0 0.0 0.00 0.00 0.00 45 1015.0
20260507085203 65 236 0.0 0.0 0.00 0.00 0.00 45 1015.0
20260507084904 65 236 0.0 0.0 0.00 0.00 0.00 45 1015.1
20260507084605 65 236 0.0 0.0 0.00 0.00 0.00 44 1015.0
20260507084303 65 236 0.0 0.0 0.00 0.00 0.00 44 1014.9
20260507084003 65 236 0.0 0.0 0.00 0.00 0.00 45 1015.0
20260507083703 65 236 0.0 0.0 0.00 0.00 0.00 44 1015.0
20260507083403 65 236 0.0 0.0 0.00 0.00 0.00 42 1015.0
20260507083104 65 236 0.0 0.0 0.00 0.00 0.00 44 1015.0
20260507082803 65 236 0.0 0.0 0.00 0.00 0.00 46 1015.0
20260507082504 65 236 0.0 0.0 0.00 0.00 0.00 48 1015.1
20260507082203 65 236 0.0 0.0 0.00 0.00 0.00 47 1015.1
20260507081904 65 236 0.0 0.0 0.00 0.00 0.00 47 1015.2
20260507081603 65 236 0.0 0.0 0.00 0.00 0.00 48 1015.2
20260507081304 65 236 0.0 0.0 0.00 0.00 0.00 47 1015.2
20260507081004 65 236 0.0 0.0 0.00 0.00 0.00 46 1015.1
20260507080704 65 236 0.0 0.0 0.00 0.00 0.00 44 1015.2
20260507080404 65 236 0.0 0.0 0.00 0.00 0.00 44 1015.3
20260507080103 65 236 0.0 0.0 0.00 0.00 0.00 42 1015.2
20260507075803 65 236 0.0 0.0 0.00 0.00 0.00 43 1015.2
20260507075504 65 236 0.0 0.0 0.00 0.00 0.00 44 1015.2
20260507075204 66 236 0.0 0.0 0.00 0.00 0.00 43 1015.2
20260507074904 66 236 0.0 0.0 0.00 0.00 0.00 43 1015.3
20260507074604 66 236 0.0 0.0 0.00 0.00 0.00 42 1015.3
20260507074303 66 236 0.0 0.0 0.00 0.00 0.00 43 1015.3
20260507074003 66 236 0.0 0.0 0.00 0.00 0.00 42 1015.3
20260507073704 66 236 0.0 0.0 0.00 0.00 0.00 43 1015.3
20260507073403 66 236 0.0 0.0 0.00 0.00 0.00 43 1015.3
20260507073104 66 236 0.0 0.0 0.00 0.00 0.00 44 1015.3
20260507072804 66 236 0.0 0.0 0.00 0.00 0.00 43 1015.3
20260507072503 66 236 0.0 0.0 0.00 0.00 0.00 42 1015.3
20260507072204 67 236 0.0 0.0 0.00 0.00 0.00 41 1015.4
20260507071904 66 236 0.0 0.0 0.00 0.00 0.00 42 1015.4
20260507071604 67 236 0.0 0.0 0.00 0.00 0.00 43 1015.4
20260507071303 67 236 0.0 0.0 0.00 0.00 0.00 44 1015.5
20260507071004 67 236 0.0 0.0 0.00 0.00 0.00 44 1015.4
20260507070703 67 236 0.0 0.0 0.00 0.00 0.00 44 1015.4
20260507070404 67 236 0.0 0.0 0.00 0.00 0.00 41 1015.4
20260507070103 67 236 0.0 0.0 0.00 0.00 0.00 41 1015.3
20260507065803 66 236 0.0 0.0 0.00 0.00 0.00 40 1015.3
20260507065503 67 236 0.0 0.0 0.00 0.00 0.00 40 1015.2
20260507065204 67 236 0.0 0.0 0.00 0.00 0.00 39 1015.3
20260507064904 67 236 0.0 0.0 0.00 0.00 0.00 38 1015.3
20260507064603 67 236 0.0 0.0 0.00 0.00 0.00 39 1015.3
20260507064303 67 236 0.0 0.0 0.00 0.00 0.00 40 1015.2
20260507064003 67 236 0.0 0.0 0.00 0.00 0.00 39 1015.2
20260507063705 67 236 0.0 0.0 0.00 0.00 0.00 40 1015.2
20260507063404 67 236 0.0 0.0 0.00 0.00 0.00 39 1015.3
20260507063104 68 236 0.0 0.0 0.00 0.00 0.00 39 1015.2
20260507062804 68 236 0.0 0.0 0.00 0.00 0.00 39 1015.2
20260507062503 68 236 0.0 0.0 0.00 0.00 0.00 38 1015.2
20260507062203 68 236 0.0 0.0 0.00 0.00 0.00 37 1015.2
20260507061904 69 236 0.0 0.0 0.00 0.00 0.00 36 1015.2
20260507061604 69 236 0.0 0.0 0.00 0.00 0.00 37 1015.2
20260507061302 69 236 0.0 0.0 0.00 0.00 0.00 38 1015.2
20260507061003 68 236 0.0 0.0 0.00 0.00 0.00 38 1015.2
20260507060704 68 236 0.0 0.0 0.00 0.00 0.00 37 1015.2
20260507060403 69 236 0.0 0.0 0.00 0.00 0.00 37 1015.2
20260507060104 69 236 0.0 0.9 0.00 0.00 0.00 37 1015.2
20260507055804 69 236 0.0 0.0 0.00 0.00 0.00 37 1015.2
20260507055503 69 236 0.0 0.0 0.00 0.00 0.00 39 1015.2
20260507055204 69 236 0.0 0.0 0.00 0.00 0.00 38 1015.2
20260507054903 69 236 0.0 0.0 0.00 0.00 0.00 37 1015.2
20260507054604 69 236 0.0 0.0 0.00 0.00 0.00 36 1015.2
20260507054303 69 236 0.0 0.0 0.00 0.00 0.00 37 1015.2
20260507054004 69 236 0.0 0.0 0.00 0.00 0.00 37 1015.3
20260507053704 69 236 0.0 0.0 0.00 0.00 0.00 36 1015.3
20260507053403 70 236 0.0 0.0 0.00 0.00 0.00 35 1015.3
20260507053104 70 236 0.0 0.0 0.00 0.00 0.00 36 1015.2
20260507052804 70 236 0.0 0.0 0.00 0.00 0.00 35 1015.2
20260507052504 70 236 0.0 0.0 0.00 0.00 0.00 35 1015.2
20260507052203 70 236 0.0 0.0 0.00 0.00 0.00 35 1015.2
20260507051903 70 236 0.0 0.0 0.00 0.00 0.00 35 1015.1
20260507051604 70 236 0.0 0.0 0.00 0.00 0.00 33 1015.1
20260507051303 70 236 0.0 0.0 0.00 0.00 0.00 33 1015.1
20260507051003 70 236 0.0 0.0 0.00 0.00 0.00 34 1015.1
20260507050704 70 236 0.0 0.0 0.00 0.00 0.00 34 1015.1
20260507050404 71 236 0.0 0.0 0.00 0.00 0.00 33 1015.1
20260507050104 71 236 0.0 0.0 0.00 0.00 0.00 34 1015.0
20260507045802 71 236 0.0 0.0 0.00 0.00 0.00 33 1015.0
20260507045502 71 236 0.0 0.0 0.00 0.00 0.00 31 1015.0
20260507045203 71 236 0.0 0.0 0.00 0.00 0.00 32 1015.0
20260507044904 72 236 0.0 0.0 0.00 0.00 0.00 31 1015.0
20260507044604 72 236 0.0 0.0 0.00 0.00 0.00 31 1015.0
20260507044303 72 236 0.0 0.0 0.00 0.00 0.00 31 1015.0
20260507044003 72 236 0.0 0.0 0.00 0.00 0.00 30 1015.0
20260507043703 72 236 0.0 0.0 0.00 0.00 0.00 28 1014.9
20260507043403 72 236 0.0 0.0 0.00 0.00 0.00 27 1014.9
20260507043104 72 236 0.0 0.0 0.00 0.00 0.00 28 1014.9
20260507042804 72 236 0.0 0.0 0.00 0.00 0.00 28 1014.9
20260507042503 72 236 0.0 0.0 0.00 0.00 0.00 28 1014.8
20260507042203 73 236 0.0 0.0 0.00 0.00 0.00 28 1014.8
20260507041904 73 236 0.0 0.0 0.00 0.00 0.00 29 1014.7
20260507041604 73 236 0.0 0.0 0.00 0.00 0.00 29 1014.7
20260507041304 73 236 0.0 0.0 0.00 0.00 0.00 28 1014.6
20260507041004 73 236 0.0 0.0 0.00 0.00 0.00 28 1014.7
20260507040704 73 236 0.0 0.0 0.00 0.00 0.00 29 1014.6
20260507040404 73 236 0.0 0.0 0.00 0.00 0.00 29 1014.6
20260507040104 73 236 0.0 0.0 0.00 0.00 0.00 30 1014.6
20260507035803 73 236 0.0 0.0 0.00 0.00 0.00 29 1014.5
20260507035503 74 236 0.0 0.0 0.00 0.00 0.00 27 1014.5
20260507035203 74 236 0.0 0.0 0.00 0.00 0.00 27 1014.5
20260507034902 74 236 0.0 0.0 0.00 0.00 0.00 26 1014.4
20260507034603 74 236 0.0 0.0 0.00 0.00 0.00 25 1014.4
20260507034303 74 236 0.0 0.0 0.00 0.00 0.00 27 1014.4
20260507034003 74 236 0.0 0.0 0.00 0.00 0.00 26 1014.4
20260507033704 74 236 0.0 0.0 0.00 0.00 0.00 26 1014.3
20260507033404 74 236 0.0 0.0 0.00 0.00 0.00 25 1014.2
20260507033104 75 236 0.0 0.0 0.00 0.00 0.00 24 1014.3
20260507032804 75 236 0.0 0.0 0.00 0.00 0.00 25 1014.2
20260507032503 75 236 0.0 0.0 0.00 0.00 0.00 24 1014.2
20260507032203 75 236 0.0 0.0 0.00 0.00 0.00 24 1014.2
20260507031904 76 236 0.0 0.0 0.00 0.00 0.00 25 1014.1
20260507031603 76 236 0.0 0.0 0.00 0.00 0.00 22 1014.1
20260507031304 76 236 0.0 0.0 0.00 0.00 0.00 25 1014.0
20260507031004 76 236 0.0 0.0 0.00 0.00 0.00 24 1014.0
20260507030704 76 236 0.0 0.0 0.00 0.00 0.00 23 1013.9
20260507030404 76 236 0.0 0.0 0.00 0.00 0.00 25 1014.0
20260507025803 77 236 0.0 0.0 0.00 0.00 0.00 23 1013.9
20260507025504 77 236 0.0 0.0 0.00 0.00 0.00 22 1013.8
20260507025203 77 236 0.0 0.9 0.00 0.00 0.00 22 1013.8
20260507024904 77 236 0.0 0.0 0.00 0.00 0.00 22 1013.8
20260507024603 77 236 0.0 0.0 0.00 0.00 0.00 21 1013.8
20260507024304 78 236 0.0 0.0 0.00 0.00 0.00 21 1013.7
20260507024004 78 236 0.0 0.0 0.00 0.00 0.00 21 1013.8
20260507023703 78 236 0.0 0.0 0.00 0.00 0.00 23 1013.7
20260507023403 79 236 0.0 0.0 0.00 0.00 0.00 20 1013.7
20260507023104 79 236 0.0 0.0 0.00 0.00 0.00 19 1013.7
20260507022803 79 235 0.0 0.9 0.00 0.00 0.00 19 1013.6
20260507022502 80 236 0.0 0.9 0.00 0.00 0.00 19 1013.6
20260507022203 80 238 0.9 0.9 0.00 0.00 0.00 18 1013.6
20260507021902 80 236 0.0 0.9 0.00 0.00 0.00 18 1013.5
20260507021602 80 230 0.9 2.6 0.00 0.00 0.00 18 1013.4
20260507021303 80 257 0.0 0.0 0.00 0.00 0.00 19 1013.4
20260507021003 80 257 0.0 0.0 0.00 0.00 0.00 17 1013.4
20260507020704 80 257 0.0 0.9 0.00 0.00 0.00 17 1013.4
20260507020404 80 259 0.9 1.7 0.00 0.00 0.00 18 1013.4
20260507020104 80 257 0.0 0.9 0.00 0.00 0.00 17 1013.4
20260507015803 81 257 0.0 0.9 0.00 0.00 0.00 18 1013.3
20260507015503 81 257 0.0 0.0 0.00 0.00 0.00 17 1013.4
20260507015202 81 257 0.9 1.7 0.00 0.00 0.00 17 1013.3
20260507014903 81 265 1.7 2.6 0.00 0.00 0.00 17 1013.3
20260507014604 81 234 0.9 2.6 0.00 0.00 0.00 16 1013.4
20260507014303 81 247 0.9 2.6 0.00 0.00 0.00 17 1013.3
20260507014002 82 267 1.7 2.6 0.00 0.00 0.00 16 1013.3
20260507013703 82 261 0.9 0.9 0.00 0.00 0.00 16 1013.3
20260507013403 82 250 1.7 2.6 0.00 0.00 0.00 16 1013.4
20260507013103 82 273 0.9 1.7 0.00 0.00 0.00 16 1013.3
20260507012804 82 229 1.7 2.6 0.00 0.00 0.00 16 1013.4
20260507012503 82 233 0.0 0.0 0.00 0.00 0.00 17 1013.4
20260507012204 82 239 0.9 1.7 0.00 0.00 0.00 16 1013.4
20260507011904 82 267 0.9 2.6 0.00 0.00 0.00 16 1013.4
20260507011604 82 187 0.9 1.7 0.00 0.00 0.00 16 1013.4
20260507011303 82 237 1.7 2.6 0.00 0.00 0.00 16 1013.4
20260507011002 82 252 2.6 2.6 0.00 0.00 0.00 16 1013.4
20260507010704 83 238 1.7 2.6 0.00 0.00 0.00 16 1013.3
20260507010404 83 257 0.9 1.7 0.00 0.00 0.00 16 1013.4
20260507010104 83 218 0.9 1.7 0.00 0.00 0.00 16 1013.4
20260507005803 83 209 0.0 1.7 0.00 0.00 0.00 16 1013.3
20260507005503 83 185 0.0 0.9 0.00 0.00 0.00 16 1013.4
20260507005203 83 207 0.0 1.7 0.00 0.00 0.00 16 1013.3
20260507004902 83 254 0.0 0.9 0.00 0.00 0.00 16 1013.4
20260507004602 83 237 0.9 0.9 0.00 0.00 0.00 16 1013.4
20260507004303 83 246 1.7 2.6 0.00 0.00 0.00 16 1013.3
20260507004003 83 228 0.9 4.3 0.00 0.00 0.00 16 1013.3
20260507003703 83 259 1.7 1.7 0.00 0.00 0.00 16 1013.3
20260507003404 84 51 0.9 0.9 0.00 0.00 0.00 16 1013.3
20260507003104 84 309 0.9 1.7 0.00 0.00 0.00 17 1013.3
20260507002803 83 260 1.7 2.6 0.00 0.00 0.00 16 1013.3
20260507002502 84 222 0.9 0.9 0.00 0.00 0.00 16 1013.3
20260507002203 84 289 0.0 0.9 0.00 0.00 0.00 17 1013.3
20260507001903 83 262 1.7 7.0 0.00 0.00 0.00 17 1013.2
20260507001603 83 192 1.7 1.7 0.00 0.00 0.00 16 1013.3
20260507001303 83 227 1.7 2.6 0.00 0.00 0.00 15 1013.2
20260507001002 83 256 0.9 1.7 0.00 0.00 0.00 16 1013.2
20260507000702 83 242 1.7 2.6 0.00 0.00 0.00 15 1013.3
20260507000405 84 246 0.9 2.6 0.00 0.00 0.00 17 1013.3
20260506235803 83 216 1.7 1.7 0.00 0.00 0.00 16 1013.4
20260506235504 83 133 0.0 1.7 0.00 0.00 0.00 18 1013.3
20260506235203 83 238 0.9 2.6 0.00 0.00 0.00 16 1013.3
20260506234904 84 241 0.9 2.6 0.00 0.00 0.00 17 1013.3
20260506234603 84 28 0.9 1.7 0.00 0.00 0.00 17 1013.4
20260506234303 83 275 1.7 1.7 0.00 0.00 0.00 17 1013.4
20260506234003 83 321 0.9 1.7 0.00 0.00 0.00 16 1013.4
20260506233703 83 123 0.9 2.6 0.00 0.00 0.00 16 1013.4
20260506233404 84 29 0.9 1.7 0.00 0.00 0.00 17 1013.4
20260506233104 84 23 0.9 1.7 0.00 0.00 0.00 18 1013.5
20260506232803 83 303 0.9 2.6 0.00 0.00 0.00 17 1013.5
20260506232502 83 270 0.9 1.7 0.00 0.00 0.00 17 1013.5
20260506232203 83 8 1.7 1.7 0.00 0.00 0.00 17 1013.5
20260506231903 83 268 0.9 2.6 0.00 0.00 0.00 15 1013.6
20260506231602 84 31 0.9 1.7 0.00 0.00 0.00 16 1013.6
20260506231304 84 310 0.9 2.6 0.00 0.00 0.00 18 1013.7
20260506231004 84 295 0.9 1.7 0.00 0.00 0.00 18 1013.7
20260506230703 84 46 0.0 1.7 0.00 0.00 0.00 18 1013.7
20260506230402 83 236 0.9 1.7 0.00 0.00 0.00 18 1013.8
20260506225802 83 50 1.7 1.7 0.00 0.00 0.00 17 1014.0
20260506225503 82 328 0.0 0.0 0.00 0.00 0.00 18 1014.0
20260506225203 83 308 0.0 0.0 0.00 0.00 0.00 16 1014.0
20260506224902 83 295 1.7 2.6 0.00 0.00 0.00 19 1014.1
20260506224603 83 33 1.7 2.6 0.00 0.00 0.00 18 1014.0
20260506224303 83 104 0.9 2.6 0.00 0.00 0.00 18 1014.1
20260506224003 83 19 0.0 0.9 0.00 0.00 0.00 18 1014.2
20260506223703 83 283 1.7 5.2 0.00 0.00 0.00 18 1014.2
20260506223403 84 3 2.6 5.2 0.00 0.00 0.00 18 1014.2
20260506223103 83 270 0.9 2.6 0.00 0.00 0.00 16 1014.3
20260506222803 84 49 0.9 1.7 0.00 0.00 0.00 20 1014.3
20260506222503 83 276 0.9 2.6 0.00 0.00 0.00 18 1014.2
20260506222204 82 243 0.9 6.1 0.00 0.00 0.00 18 1014.3
20260506221904 82 243 0.9 1.7 0.00 0.00 0.00 16 1014.3
20260506221603 83 224 1.7 1.7 0.00 0.00 0.00 17 1014.4
20260506221303 83 238 0.9 2.6 0.00 0.00 0.00 18 1014.4
20260506221002 84 292 0.9 2.6 0.00 0.00 0.00 19 1014.5
20260506220702 83 269 0.9 1.7 0.00 0.00 0.00 20 1014.5
20260506220403 81 252 1.7 8.7 0.00 0.00 0.00 18 1014.4
20260506215802 83 320 0.0 1.7 0.00 0.00 0.00 19 1014.7
20260506215502 82 269 0.9 2.6 0.00 0.00 0.00 18 1014.7
20260506215203 82 26 0.0 0.9 0.00 0.00 0.00 17 1014.7
20260506214902 82 179 1.7 2.6 0.00 0.00 0.00 18 1014.7
20260506214603 82 251 1.7 2.6 0.00 0.00 0.00 19 1014.8
20260506214303 81 249 0.9 1.7 0.00 0.00 0.00 18 1015.0
20260506214005 82 242 1.7 2.6 0.00 0.00 0.00 18 1015.0
20260506213703 82 203 0.9 2.6 0.00 0.00 0.00 18 1015.1
20260506213403 83 42 1.7 2.6 0.00 0.00 0.00 18 1015.1
20260506213103 83 263 0.9 1.7 0.00 0.00 0.00 20 1015.1
20260506212804 82 329 0.9 2.6 0.00 0.00 0.00 20 1015.1
20260506212505 82 14 0.9 4.3 0.00 0.00 0.00 20 1015.2
20260506212204 82 248 1.7 2.6 0.00 0.00 0.00 19 1015.3
20260506211905 82 252 0.9 1.7 0.00 0.00 0.00 21 1015.3
20260506211604 83 276 0.9 2.6 0.00 0.00 0.00 21 1015.3
20260506211305 82 193 0.9 1.7 0.00 0.00 0.00 19 1015.3
20260506211005 82 226 0.0 1.7 0.00 0.00 0.00 21 1015.3
20260506210704 81 281 0.0 0.9 0.00 0.00 0.00 19 1015.4
20260506210405 82 255 2.6 4.3 0.00 0.00 0.00 19 1015.4
20260506210104 81 170 0.9 1.7 0.00 0.00 0.00 19 1015.5
20260506205806 81 95 0.9 2.6 0.00 0.00 0.00 20 1015.5
20260506205505 82 2 2.6 2.6 0.00 0.00 0.00 20 1015.6
20260506205205 82 354 0.9 1.7 0.00 0.00 0.00 25 1015.7
20260506204905 81 251 2.6 5.2 0.00 0.00 0.00 19 1015.6
20260506204604 81 261 1.7 7.0 0.00 0.00 0.00 20 1015.6
20260506204305 81 4 0.0 0.9 0.00 0.00 0.00 22 1015.6
20260506204004 81 265 1.7 2.6 0.00 0.00 0.00 20 1015.7
20260506203705 80 53 0.9 0.9 0.00 0.00 0.00 20 1015.7
20260506203404 81 286 0.0 2.6 0.00 0.00 0.00 20 1015.9
20260506203104 81 230 1.7 2.6 0.00 0.00 0.00 20 1015.9
20260506202805 81 278 1.7 5.2 0.00 0.00 0.00 20 1016.0
20260506202506 81 240 0.9 1.7 0.00 0.00 0.00 21 1016.0
20260506202204 81 354 0.0 2.6 0.00 0.00 0.00 22 1015.9
20260506201905 80 7 0.9 2.6 0.00 0.00 0.00 21 1016.0
20260506201605 80 54 0.9 2.6 0.00 0.00 0.00 21 1016.1
20260506201304 81 349 1.7 2.6 0.00 0.00 0.00 21 1016.1
20260506201004 81 13 0.9 1.7 0.00 0.00 0.00 21 1016.1
20260506200704 80 333 0.0 0.9 0.00 0.00 0.00 23 1016.1
20260506200405 80 125 1.7 2.6 0.00 0.00 0.00 20 1016.1
20260506200105 79 148 0.9 1.7 0.00 0.00 0.00 22 1016.2
20260506195805 79 170 0.9 1.7 0.00 0.00 0.00 21 1016.1
20260506195505 79 218 0.9 1.7 0.00 0.00 0.00 20 1016.2
20260506195204 81 41 2.6 5.2 0.00 0.00 0.00 20 1016.3
20260506194904 81 88 0.9 1.7 0.00 0.00 0.00 22 1016.3
20260506194604 81 297 0.9 2.6 0.00 0.00 0.00 23 1016.3
20260506194304 80 253 0.9 2.6 0.00 0.00 0.00 21 1016.3
20260506194005 80 45 1.7 2.6 0.00 0.00 0.00 21 1016.4
20260506193704 81 36 0.9 2.6 0.00 0.00 0.00 24 1016.4
20260506193405 80 332 1.7 2.6 0.00 0.00 0.00 23 1016.4
20260506193104 79 341 1.7 2.6 0.00 0.00 0.00 21 1016.5
20260506192804 80 71 0.9 0.9 0.00 0.00 0.00 21 1016.5
20260506192505 79 294 0.9 1.7 0.00 0.00 0.00 22 1016.5
20260506192204 79 269 0.9 2.6 0.00 0.00 0.00 21 1016.6
20260506191904 79 228 0.9 2.6 0.00 0.00 0.00 21 1016.6
20260506191605 79 262 2.6 6.1 0.00 0.00 0.00 20 1016.7
20260506191305 79 242 0.9 2.6 0.00 0.00 0.00 22 1016.7
20260506191004 79 324 0.9 2.6 0.00 0.00 0.00 22 1016.8
20260506190705 79 244 2.6 2.6 0.00 0.00 0.00 21 1016.8
20260506190405 79 292 0.9 1.7 0.00 0.00 0.00 22 1016.8
20260506190104 79 144 1.7 2.6 0.00 0.00 0.00 21 1016.8
20260506185804 79 31 0.0 1.7 0.00 0.00 0.00 24 1017.0
20260506185505 79 221 0.9 4.3 0.00 0.00 0.00 28 1017.0
20260506185204 79 285 2.6 2.6 0.00 0.00 0.00 25 1017.0
20260506184904 78 277 0.0 0.0 0.00 0.00 0.00 23 1017.1
20260506184605 79 284 0.9 1.7 0.00 0.00 0.00 23 1017.1
20260506184304 78 351 0.9 2.6 0.00 0.00 0.00 27 1017.1
20260506184004 78 202 0.9 1.7 0.00 0.00 0.00 24 1017.2
20260506183704 77 217 0.9 1.7 0.00 0.00 0.00 20 1017.2
20260506183404 77 17 1.7 2.6 0.00 0.00 0.00 22 1017.3
20260506183105 78 40 0.9 1.7 0.00 0.00 0.00 22 1017.4
20260506182805 79 341 1.7 2.6 0.00 0.00 0.00 22 1017.4
20260506182504 78 317 0.9 1.7 0.00 0.00 0.00 24 1017.4
20260506182205 78 323 0.9 2.6 0.00 0.00 0.00 24 1017.4
20260506181905 78 4 0.9 4.3 0.00 0.00 0.00 30 1017.5
20260506181604 78 359 0.9 1.7 0.00 0.00 0.00 25 1017.5
20260506181305 78 175 0.9 1.7 0.00 0.00 0.00 25 1017.5
20260506181005 78 354 0.9 2.6 0.00 0.00 0.00 28 1017.5
20260506180705 77 353 1.7 4.3 0.00 0.00 0.00 28 1017.5
20260506180405 76 73 0.9 0.9 0.00 0.00 0.00 27 1017.5
20260506180105 75 156 0.0 1.7 0.00 0.00 0.00 26 1017.5
20260506175804 76 31 0.9 2.6 0.00 0.00 0.00 27 1017.6
20260506175505 76 11 1.7 2.6 0.00 0.00 0.00 28 1017.5
20260506175205 76 9 1.7 4.3 0.00 0.00 0.00 29 1017.6
20260506174904 75 287 0.9 0.9 0.00 0.00 0.00 27 1017.6
20260506174604 75 252 1.7 2.6 0.00 0.00 0.00 26 1017.6
20260506174304 76 249 1.7 2.6 0.00 0.00 0.00 26 1017.6
20260506174004 76 264 0.9 2.6 0.00 0.00 0.00 27 1017.6
20260506173704 75 270 2.6 4.3 0.00 0.00 0.00 26 1017.6
20260506173405 75 238 0.9 2.6 0.00 0.00 0.00 28 1017.6
20260506173104 75 249 1.7 2.6 0.00 0.00 0.00 26 1017.5
20260506172805 75 242 0.9 2.6 0.00 0.00 0.00 28 1017.5
20260506172504 74 199 0.9 0.9 0.00 0.00 0.00 28 1017.6
20260506172204 74 241 0.9 2.6 0.00 0.00 0.00 28 1017.5
20260506171905 74 175 0.9 0.9 0.00 0.00 0.00 28 1017.5
20260506171604 75 244 0.9 5.2 0.00 0.00 0.00 29 1017.5
20260506171304 74 331 0.9 0.9 0.00 0.00 0.00 29 1017.4
20260506171004 74 187 0.9 1.7 0.00 0.00 0.00 29 1017.5
20260506170704 73 215 0.0 1.7 0.00 0.00 0.00 28 1017.5
20260506170404 73 169 0.9 1.7 0.00 0.00 0.00 28 1017.5
20260506170104 73 148 0.9 1.7 0.00 0.00 0.00 29 1017.5
20260506165805 72 223 0.9 2.6 0.00 0.00 0.00 30 1017.5
20260506165505 72 160 0.9 1.7 0.00 0.00 0.00 29 1017.6
20260506165204 72 229 1.7 2.6 0.00 0.00 0.00 29 1017.6
20260506164904 72 150 0.9 2.6 0.00 0.00 0.00 29 1017.6
20260506164605 72 263 1.7 2.6 0.00 0.00 0.00 29 1017.6
20260506164305 72 356 0.0 1.7 0.00 0.00 0.00 33 1017.6
20260506164004 72 205 0.0 0.9 0.00 0.00 0.00 30 1017.5
20260506163705 72 279 0.0 0.0 0.00 0.00 0.00 30 1017.4
20260506163405 71 94 0.0 1.7 0.00 0.00 0.00 30 1017.5
20260506163104 71 95 0.9 0.9 0.00 0.00 0.00 29 1017.5
20260506162805 72 14 1.7 2.6 0.00 0.00 0.00 32 1017.5
20260506162504 71 282 0.9 1.7 0.00 0.00 0.00 31 1017.4
20260506162205 71 236 0.9 1.7 0.00 0.00 0.00 30 1017.5
20260506161905 71 75 0.0 0.0 0.00 0.00 0.00 31 1017.5
20260506161604 71 8 0.0 1.7 0.00 0.00 0.00 31 1017.5
20260506161305 70 162 0.0 1.7 0.00 0.00 0.00 31 1017.5
20260506161004 70 326 0.9 0.9 0.00 0.00 0.00 31 1017.6
20260506160704 70 15 0.0 1.7 0.00 0.00 0.00 31 1017.6
20260506160403 70 19 0.0 1.7 0.00 0.00 0.00 33 1017.6
20260506160103 70 25 0.0 0.0 0.00 0.00 0.00 35 1017.6
20260506155805 69 83 0.0 0.9 0.00 0.00 0.00 34 1017.7
20260506155505 69 350 0.0 1.7 0.00 0.00 0.00 34 1017.6
20260506155204 69 355 0.9 1.7 0.00 0.00 0.00 35 1017.6
20260506154905 69 15 0.0 0.9 0.00 0.00 0.00 36 1017.6
20260506154604 69 52 0.9 1.7 0.00 0.00 0.00 34 1017.7
20260506154304 68 122 0.0 0.9 0.00 0.00 0.00 34 1017.7
20260506154005 68 111 0.9 0.9 0.00 0.00 0.00 35 1017.7
20260506153704 67 103 0.9 1.7 0.00 0.00 0.00 35 1017.7
20260506153405 67 19 0.0 0.0 0.00 0.00 0.00 35 1017.6
20260506153105 67 14 0.0 0.9 0.00 0.00 0.00 37 1017.6
20260506152805 67 15 0.0 0.0 0.00 0.00 0.00 38 1017.6
20260506152505 67 14 0.0 0.9 0.00 0.00 0.00 36 1017.6
20260506152203 66 100 0.9 1.7 0.00 0.00 0.00 37 1017.6
20260506151904 66 271 0.0 0.0 0.00 0.00 0.00 35 1017.6
20260506151604 66 277 0.0 0.0 0.00 0.00 0.00 38 1017.6
20260506151304 65 277 0.0 0.0 0.00 0.00 0.00 38 1017.6
20260506151005 65 177 0.0 1.7 0.00 0.00 0.00 37 1017.6
20260506150705 65 146 0.0 1.7 0.00 0.00 0.00 37 1017.6
20260506150405 65 136 0.0 0.9 0.00 0.00 0.00 38 1017.5
20260506150104 64 148 0.0 0.9 0.00 0.00 0.00 39 1017.5
20260506145805 64 132 0.9 2.6 0.00 0.00 0.00 39 1017.5
20260506145505 64 262 0.0 2.6 0.00 0.00 0.00 39 1017.5
20260506145204 63 273 0.0 0.0 0.00 0.00 0.00 41 1017.5
20260506144904 63 265 0.9 0.9 0.00 0.00 0.00 41 1017.5
20260506144605 63 239 0.0 0.9 0.00 0.00 0.00 40 1017.5
20260506144303 62 169 0.9 0.9 0.00 0.00 0.00 41 1017.4
20260506144003 62 152 0.0 0.9 0.00 0.00 0.00 42 1017.4
20260506143703 62 151 0.0 0.9 0.00 0.00 0.00 42 1017.4
20260506143404 62 196 0.0 1.7 0.00 0.00 0.00 42 1017.4
20260506143103 61 173 0.9 2.6 0.00 0.00 0.00 43 1017.4